Regional Weather Roundup
Issued by NWS

Home | Current Version | Previous Version | Graphics & Text | Print | Product List | Glossary On
Versions: 1 2 3 4 5 6 7 8 9 10 11 12 13 14 15 16 17 18 19 20 21 22 23 24 25 26 27 28 29 30 31 32 33 34 35 36 37 38 39 40 41 42 43 44 45 46 47 48 49 50
904
ASUS44 KLIX 240805
RWRLA
LOUISIANA WEATHER ROUNDUP
NATIONAL WEATHER SERVICE NEW ORLEANS LA
300 AM CDT FRI OCT 24 2014

NOTE: "FAIR" INDICATES FEW OR NO CLOUDS BELOW 12,000 FEET WITH NO
      SIGNIFICANT WEATHER AND/OR OBSTRUCTIONS TO VISIBILITY.
      SKY/WX - SKY CONDITION AND SIGNIFICANT WEATHER.
      TMP - AIR TEMPERATURE.    DP   - DEWPOINT TEMPERATURE.
      RH  - RELATIVE HUMIDITY.  PRES - PRESSURE.
      HX  - HEAT INDEX.         WCI  - WIND CHILL INDEX.

*  THESE STATIONS ARE NOT NWS OR FAA STATIONS AND ARE NOT UNDER
   NWS QUALITY CONTROL.

LAZ040-048-061>063-065-066-069-240900-
SOUTHEAST LOUISIANA

CITY           SKY/WX    TMP DP  RH WIND       PRES   REMARKS
N.O. AUDUBON     N/A     60  52  75 MISG        N/A
N.O. INTL ARPT PTCLDY    61  51  70 NE9       30.07S
N.O. LAKEFRONT CLEAR     65  51  60 NE13      30.07S
N.O. DOWNTOWN* FAIR      63  45  51 N3        30.07S
SLIDELL        CLEAR     49  46  90 N5        30.07S
BATON ROUGE    CLEAR     53  49  86 NE3       30.09F
BOOTHVILLE     CLEAR     67  58  72 VRB6      30.05F
BELLE CHASSE   CLEAR     51  48  89 N5        30.07R
BOGALUSA*        N/A     49  46  88 N3        30.10S
NEW ROADS*     FAIR      48  47  96 CALM      30.10S
GONZALES*      FAIR      54  53  97 N3        30.09S
HAMMOND*       CLEAR     50  46  87 N5        30.11R
HOUMA*         CLEAR     54  52  94 CALM      30.07S
PORT FOURCHON* SUNNY     66  57  72 N7        30.08S

$$

LAZ041-044-053-054-240900-
SOUTHWEST LOUISIANA

CITY           SKY/WX    TMP DP  RH WIND       PRES   REMARKS
LAKE CHARLES   CLEAR     53  49  86 N3        30.11S
LAFAYETTE      CLEAR     52  51  97 NE3       30.10S
PATTERSON      CLEAR     55  52  88 NE5       30.10S
SALT POINT       N/A     58  54  86 VRB3      30.08S
NEW IBERIA     CLEAR     54  50  86 N6        30.10S
CHENAULT AIRPK CLEAR     52  49  92 N5        30.12R

$$

LAZ027-028-240900-
CENTRAL LOUISIANA

CITY           SKY/WX    TMP DP  RH WIND       PRES   REMARKS
FORT POLK      CLEAR     52  50  92 NE3       30.12S
ALEXANDRIA INT CLEAR     46  45  96 NW3       30.12S
ALEXANDRIA     CLEAR     43  42  97 CALM      30.13S

$$

LAZ001-002-240900-
NORTHWEST LOUISIANA

CITY           SKY/WX    TMP DP  RH WIND       PRES   REMARKS
SHREVEPORT     CLEAR     51  49  92 CALM      30.14R
BARKSDALE AFB  CLEAR     50  49  96 CALM      30.14F
DTN SHREVEPORT CLEAR     51  49  92 CALM      30.14S

$$

LAZ014-016-240900-
NORTHEAST LOUISIANA

CITY           SKY/WX    TMP DP  RH WIND       PRES   REMARKS
MONROE         PTCLDY    48  46  93 NE3       30.15F FOG
TALLULAH       CLEAR     46  45  96 NW5       30.13R

$$




USA.gov is the U.S. government's official web portal to all federal, state and local government web resources and services.